Theta_e
342 343 345 346 346 347 349 350 349 350 350 350 350 349 349 350 350 349 348 348 348 342 341 340 342 342 346 343 345 343 344 344 343 342 341 341 341 340 341 343 341 342 341 342 341 343 345 346 347 347 347 348 348 343 338 337 338 341 332 335 335 334
339 341 344 346 347 348 348 348 346 346 346 347 348 349 346 344 351 343 349 347 344 346 342 339 339 347 341 341 341 343 343 344 344 344 342 342 341 341 341 342 343 342 343 343 342 336 339 347 348 348 348 348 344 338 338 337 338 339 333 332 333 337
339 340 341 343 345 347 346 345 345 346 347 349 349 348 344 347 343 343 346 345 346 345 344 342 343 346 345 345 344 345 344 344 345 345 345 345 344 343 342 343 342 341 342 342 339 335 334 339 341 349 350 346 341 340 339 339 339 339 332 333 332 344
339 339 338 340 343 343 343 343 343 344 345 345 345 347 344 345 344 341 344 342 344 345 343 342 351 350 351 345 342 346 346 344 344 344 345 344 345 345 345 345 344 344 341 338 331 330 332 335 339 341 342 341 340 340 339 339 340 338 335 340 334 347
340 339 337 338 339 340 340 341 342 343 345 344 344 344 344 345 344 341 342 343 344 346 345 343 341 343 344 341 340 340 341 340 341 339 345 338 338 340 342 340 339 339 336 331 328 328 330 332 338 339 341 340 339 340 340 341 340 336 334 337 337 345
341 338 335 335 336 339 339 337 338 342 342 342 344 343 342 341 342 342 342 345 345 341 341 342 341 340 341 341 341 341 339 339 339 343 343 338 337 338 338 339 338 332 330 328 326 326 327 331 334 339 338 339 338 339 339 339 333 332 335 334 336 346
339 336 335 336 336 338 334 335 338 341 340 339 341 341 339 340 342 342 345 347 340 337 338 338 339 339 339 339 339 340 339 341 339 339 344 338 339 341 339 337 337 334 330 328 326 327 328 330 334 338 337 338 338 338 335 332 332 333 333 334 338 346
339 337 336 337 335 334 337 339 341 343 342 343 340 339 340 341 344 344 347 347 345 339 338 337 339 340 338 338 339 338 341 340 339 339 341 344 342 341 340 340 339 340 337 332 332 336 336 336 334 335 335 333 333 332 330 329 329 330 332 334 336 345
337 338 335 334 334 338 338 339 339 340 339 347 338 339 340 341 342 344 344 347 345 340 339 338 338 339 337 336 337 339 341 341 339 338 339 338 343 341 337 337 340 341 340 338 337 335 337 337 337 333 334 333 333 334 333 334 333 333 333 335 336 340
336 335 335 337 337 338 337 337 337 339 342 344 343 343 343 343 341 343 343 344 346 343 340 340 339 338 335 337 337 338 343 342 339 338 340 339 338 338 338 339 338 338 338 337 336 336 339 337 335 335 334 334 333 332 332 335 334 333 336 335 337 339
338 338 336 335 335 335 334 334 336 336 339 339 341 344 342 342 339 340 345 345 344 344 344 340 338 339 337 335 336 339 340 340 339 340 340 339 338 341 339 338 338 337 338 338 339 340 339 338 335 336 337 335 333 333 336 333 337 335 334 334 338 335
335 337 336 336 337 335 334 336 337 336 335 336 337 336 337 337 341 338 340 343 345 343 344 341 340 340 339 339 338 338 339 338 336 339 341 340 339 340 340 339 341 339 338 337 337 336 337 335 335 334 334 334 333 334 335 336 335 334 335 334 336 335
337 337 335 334 334 336 336 337 338 336 337 338 337 336 337 338 338 338 338 337 343 344 344 341 344 340 342 339 337 337 339 340 341 340 341 342 342 341 341 340 339 340 339 338 337 336 337 335 333 334 335 335 334 335 337 336 334 334 334 334 334 335
336 336 336 336 335 335 336 337 337 336 337 336 337 336 337 339 340 340 338 339 339 342 344 342 342 341 340 339 339 338 339 337 338 341 341 343 341 340 339 340 339 337 341 337 336 335 334 334 333 333 334 335 334 334 335 335 335 333 333 334 334 335
336 335 337 336 336 336 337 337 337 338 337 337 339 339 338 338 339 341 341 339 337 340 341 343 343 341 342 338 336 338 336 336 337 341 341 341 340 339 339 338 336 336 336 335 335 335 335 333 333 334 335 335 334 335 335 335 336 335 336 334 333 336
333 333 333 335 336 336 336 337 337 341 338 338 338 337 337 336 338 338 340 338 337 338 343 341 342 342 340 339 336 338 338 338 340 341 340 339 339 337 338 338 338 335 333 333 334 334 334 333 333 334 334 334 334 335 336 336 336 336 337 336 336 335
334 334 335 336 336 336 337 337 338 338 338 338 337 336 337 337 337 338 338 337 336 339 341 341 341 342 341 340 339 338 340 339 340 339 338 337 337 337 336 337 335 337 334 331 333 332 332 332 333 333 333 333 334 335 334 334 335 336 338 336 335 335
334 334 334 335 335 336 337 336 336 335 336 335 337 336 336 337 337 338 337 335 338 340 339 338 338 339 338 339 337 336 336 337 337 336 335 335 334 334 334 333 332 333 334 333 331 331 331 332 334 334 333 333 333 333 334 335 335 337 336 335 335 334
334 334 334 336 336 336 336 335 336 335 336 336 335 335 334 334 335 337 337 338 338 337 338 336 336 336 336 336 335 334 333 334 335 333 333 332 332 331 331 331 329 330 332 331 330 331 330 329 331 331 332 332 332 333 334 335 336 335 335 334 335 337
335 335 335 334 333 333 334 332 332 332 331 332 332 333 334 333 335 337 337 336 335 334 335 335 333 332 332 334 334 333 332 332 333 332 330 329 329 328 328 328 327 328 327 329 330 330 328 327 327 326 327 327 328 329 330 332 334 335 335 335 335 335
333 333 333 332 331 330 329 330 331 330 329 331 331 332 334 335 334 333 333 333 331 329 329 331 331 329 328 330 329 331 330 330 330 330 331 330 330 329 329 327 325 326 325 324 325 326 325 326 323 322 323 322 324 327 329 329 332 332 331 333 335 334
333 333 332 330 331 331 330 330 328 329 329 329 330 331 331 331 330 330 329 328 328 326 326 327 328 327 326 326 325 325 327 325 325 326 327 328 327 328 325 324 323 321 323 322 321 323 324 324 320 319 318 319 320 323 324 327 326 326 326 328 330 332
332 331 331 333 332 332 332 332 330 328 329 330 333 333 330 329 328 326 325 325 325 324 324 324 325 327 324 324 323 322 323 324 323 325 322 322 322 321 321 320 320 319 318 320 320 323 322 321 317 319 319 315 314 316 319 321 323 322 324 325 325 326
332 332 332 333 333 333 333 333 332 331 332 333 329 330 328 326 324 323 323 324 323 323 323 322 323 323 323 322 321 321 321 321 322 322 320 319 318 318 318 318 319 319 318 315 316 318 320 319 319 317 313 314 314 314 311 315 316 319 324 323 324 323
331 330 330 333 332 332 332 331 332 332 333 332 331 328 326 324 324 324 321 320 321 322 321 321 321 321 323 320 320 320 319 319 318 318 321 317 316 316 317 317 317 316 316 314 313 314 316 318 318 319 317 315 312 312 311 313 315 316 320 320 321 321
331 331 332 333 334 333 331 330 329 329 327 326 325 326 323 322 321 319 318 320 320 320 320 319 319 319 319 321 318 318 317 316 316 317 318 316 316 315 316 316 316 315 314 314 312 312 311 315 317 316 318 317 318 313 311 313 314 309 317 319 319 319
330 330 331 332 334 333 331 329 329 331 329 324 323 324 325 325 323 322 321 319 318 318 318 317 317 317 316 318 317 316 315 315 316 316 318 315 314 314 315 315 315 313 312 313 312 310 310 310 312 313 314 314 316 316 315 312 308 310 307 312 314 314
327 329 331 332 332 332 331 330 329 328 327 325 323 322 323 322 322 322 320 319 318 317 318 317 316 315 315 316 316 315 315 314 315 316 316 313 313 314 314 314 314 312 312 312 312 310 309 310 309 309 312 310 312 312 312 313 312 309 308 305 306 311
325 325 326 327 326 326 329 328 327 326 324 324 324 324 323 323 321 321 318 319 318 318 317 315 315 314 314 314 316 315 313 313 314 315 316 313 313 312 312 311 310 310 309 310 312 312 308 307 308 306 307 307 307 307 309 310 310 309 306 304 303 303
323 323 324 324 324 323 324 326 324 323 322 321 322 322 321 320 320 319 317 318 318 316 315 313 313 313 313 313 313 314 313 312 313 315 316 312 312 311 311 310 310 310 309 308 309 309 308 307 308 307 307 307 305 305 306 306 305 305 305 305 301 301
321 322 322 322 321 321 321 322 322 322 321 320 320 321 320 319 319 318 316 316 315 315 314 312 311 311 311 312 312 314 312 312 313 315 314 311 310 311 310 310 309 309 309 308 307 307 308 308 307 307 307 306 305 306 305 303 302 303 303 301 301 301
319 320 321 321 321 320 320 319 319 320 321 321 321 321 320 319 318 316 315 314 314 313 311 311 310 308 308 310 311 309 311 310 311 310 310 310 310 311 310 310 309 309 309 308 308 310 307 306 306 306 305 306 306 308 305 303 303 302 301 301 301 300
317 318 318 319 319 318 318 318 318 318 319 321 321 321 320 319 318 316 314 313 311 309 308 308 308 307 307 308 309 308 308 308 307 309 310 310 309 310 307 307 308 308 308 307 307 307 305 305 306 304 304 306 306 305 304 304 304 302 302 302 301 298
316 317 317 317 317 317 317 317 317 316 317 317 317 317 316 315 314 313 313 311 309 308 307 307 307 307 308 308 308 308 308 308 308 308 309 308 308 308 307 306 305 306 306 307 306 305 305 305 305 304 305 304 303 302 303 304 303 302 302 300 298 297
315 315 315 314 314 314 314 315 315 315 315 316 315 315 315 315 313 313 313 310 307 307 307 306 307 308 309 307 307 307 308 306 306 306 306 306 307 306 306 305 305 305 306 307 305 305 304 304 305 303 303 302 303 301 301 303 302 301 301 299 298 297
314 314 315 314 313 313 313 314 314 314 315 316 316 314 314 314 313 313 310 308 307 306 307 307 308 307 308 307 306 305 306 305 305 305 306 306 305 304 305 305 303 303 303 309 305 304 304 303 303 303 302 302 301 300 301 302 301 300 299 299 298 297
314 314 313 313 312 312 312 313 313 314 313 313 313 313 312 312 312 311 309 307 307 307 308 307 309 308 306 306 306 305 304 304 304 304 305 305 305 304 304 303 303 302 303 303 305 303 303 303 303 302 302 301 301 300 300 300 300 299 298 298 297 297
Wind_Speed
6 6 7 6 6 6 8 12 10 10 9 8 8 7 6 7 6 6 6 7 5 2 1 2 4 2 6 3 6 5 4 3 3 3 3 3 3 2 3 4 4 4 5 3 3 4 5 5 6 7 9 9 9 6 5 5 5 1 1 4 4 5
5 7 6 6 5 5 5 7 5 4 3 4 5 6 4 2 4 2 5 4 3 3 3 2 3 5 2 3 4 5 4 3 2 1 1 3 3 3 4 5 6 6 6 4 4 2 3 6 8 9 8 9 5 4 5 5 5 2 3 5 4 6
6 8 7 6 5 5 6 4 4 3 3 5 4 4 3 4 3 4 3 3 4 4 3 3 3 4 3 4 3 5 4 3 2 2 3 3 3 4 5 7 7 7 7 6 3 3 3 5 5 9 9 6 5 6 5 5 5 6 3 4 4 8
8 7 7 7 6 5 5 6 5 4 5 4 4 4 3 3 3 3 3 3 5 4 3 5 7 8 6 3 2 3 4 3 3 3 4 3 4 5 6 7 8 8 6 4 3 5 4 5 5 5 5 5 5 6 5 5 5 7 1 5 4 9
8 6 6 7 7 6 6 6 6 6 7 6 6 5 4 4 5 4 4 3 2 2 3 4 4 5 3 2 2 1 1 1 1 2 4 2 3 4 4 4 4 5 5 4 5 5 4 5 6 5 5 5 5 5 5 5 6 6 3 5 6 13
7 6 7 7 7 7 6 6 6 7 6 6 6 6 4 6 4 4 2 5 4 4 3 3 3 3 1 1 2 1 3 2 2 3 2 4 4 4 4 4 4 4 5 4 5 5 5 5 6 6 6 6 6 5 5 6 7 2 3 4 5 12
6 7 8 7 7 6 7 7 7 7 7 6 6 6 5 4 4 3 4 5 4 3 3 2 3 2 1 1 0 0 1 1 2 2 1 2 3 4 4 5 4 5 5 5 4 5 6 7 6 6 6 6 5 5 6 6 3 4 4 5 6 13
7 7 7 8 6 6 6 6 6 8 5 6 6 4 5 5 4 5 4 4 3 2 4 1 1 0 1 3 3 2 3 1 2 2 2 3 4 4 4 4 3 3 3 4 3 3 3 3 3 1 2 3 3 3 4 3 4 4 3 3 3 8
7 6 8 8 6 6 5 5 3 3 1 1 4 5 5 5 5 4 3 4 3 3 1 1 1 1 1 3 3 2 2 3 3 3 2 3 4 4 4 4 4 4 4 2 2 3 2 3 4 3 1 3 3 3 4 4 3 3 1 2 3 5
5 6 6 7 5 5 3 6 6 6 3 5 5 4 5 6 5 2 1 1 2 3 4 5 3 1 1 3 3 2 3 3 3 2 2 4 3 3 5 4 4 4 4 2 3 5 3 2 2 2 2 3 4 4 4 3 3 4 4 1 3 4
6 7 7 7 5 4 4 5 5 2 2 5 5 6 8 8 7 5 2 2 2 3 3 3 3 4 2 2 3 1 1 2 1 1 3 3 3 3 3 3 3 4 3 3 4 5 5 5 4 3 3 3 5 4 4 2 1 2 3 3 3 4
6 8 8 6 4 4 5 5 4 4 5 5 6 6 6 4 3 5 9 3 1 2 1 1 3 4 4 3 0 3 3 4 3 1 4 3 1 3 3 3 4 4 3 3 4 5 5 5 5 5 4 5 4 4 4 3 3 3 3 4 5 4
7 8 8 6 3 4 5 5 5 4 4 5 5 5 4 1 4 5 6 10 4 2 1 0 0 2 1 4 2 2 3 3 4 4 4 4 4 4 5 5 5 5 5 5 5 6 5 4 4 5 4 4 4 3 3 3 5 4 4 5 5 5
7 8 7 4 3 4 4 5 4 4 3 4 4 4 3 4 4 5 6 8 12 5 1 1 2 4 5 5 4 4 4 5 6 4 5 6 6 5 5 5 5 5 5 5 6 6 6 6 6 5 4 4 4 5 4 3 4 4 4 5 5 4
7 7 6 4 4 5 4 4 5 4 4 3 4 4 4 5 4 5 4 4 6 7 1 1 2 2 6 4 3 4 5 3 5 2 4 4 5 5 5 3 4 5 4 5 4 5 5 6 6 6 6 4 5 5 4 5 4 4 3 3 3 4
6 7 5 5 4 5 4 5 4 4 4 4 4 5 5 3 2 3 5 2 7 10 4 4 3 3 4 4 5 2 1 1 5 1 4 4 4 5 5 4 4 3 3 4 4 5 5 5 5 6 6 6 6 5 5 5 5 5 4 3 4 4
8 7 6 5 5 4 4 5 4 4 5 5 4 5 4 3 3 4 6 3 7 5 2 6 6 6 6 5 3 2 4 3 4 6 6 6 6 6 6 5 5 5 4 4 4 4 5 4 5 5 6 5 5 5 6 6 6 5 4 4 4 5
7 6 5 6 5 5 4 6 5 5 4 6 6 4 4 4 2 3 3 0 7 5 7 7 7 7 7 7 6 5 6 6 5 6 6 6 5 6 5 5 6 5 6 5 5 5 5 6 5 5 6 6 7 6 7 7 6 5 5 4 4 4
8 6 5 5 5 5 5 5 5 5 6 6 5 5 5 5 3 3 5 4 3 5 6 7 7 7 6 6 6 6 6 5 5 5 5 5 6 6 6 6 6 5 5 5 3 4 5 5 5 5 5 6 6 7 6 6 6 6 6 4 3 5
7 6 5 4 4 4 5 5 6 5 6 5 5 5 5 4 2 6 8 7 7 6 6 7 7 8 7 6 6 6 6 5 5 5 5 6 5 6 6 6 7 5 6 6 5 5 6 6 4 3 4 6 6 6 6 6 6 5 4 4 4 4
6 6 5 5 4 5 5 5 4 5 6 4 5 5 5 5 7 9 9 8 7 6 7 7 7 7 8 7 7 5 6 7 7 6 5 5 5 5 5 4 4 4 5 6 5 7 8 6 4 6 4 3 4 4 5 3 6 8 8 7 6 6
6 5 5 5 4 3 2 4 6 4 5 5 4 4 7 7 9 9 9 8 6 6 6 7 6 6 7 7 6 6 6 6 6 5 5 4 4 5 6 6 5 5 5 5 4 7 8 7 6 6 6 7 6 4 3 2 7 8 9 7 7 7
5 5 4 4 5 4 2 3 4 3 5 5 3 6 8 8 9 9 8 6 6 6 6 7 6 6 6 6 6 6 5 4 4 4 5 6 6 7 6 6 7 6 6 4 4 5 9 9 5 6 3 2 4 8 5 7 6 12 8 6 6 8
5 4 4 4 4 5 7 6 4 6 2 5 8 8 10 9 9 9 7 6 6 6 6 6 5 4 5 5 5 5 5 5 5 5 5 5 6 6 6 7 7 7 5 6 6 6 8 9 8 7 5 2 3 2 5 5 10 9 4 9 7 8
5 4 4 5 6 6 7 7 5 3 3 8 8 8 8 8 7 7 6 6 5 5 6 5 4 4 4 5 5 6 6 5 6 7 5 6 6 5 5 5 6 6 7 4 6 4 7 8 9 9 5 4 3 3 3 7 11 6 5 7 6 8
4 3 4 4 5 5 6 7 6 6 6 6 7 6 7 6 6 5 5 3 5 5 5 5 5 5 5 5 7 7 6 6 6 6 6 5 6 6 7 7 7 6 7 7 3 6 6 7 6 9 8 7 4 3 6 7 4 8 10 2 6 5
4 4 4 4 4 5 6 5 5 5 5 6 8 6 7 6 6 5 5 6 6 6 5 4 5 6 8 8 6 6 7 7 7 6 6 7 7 7 7 7 7 7 6 6 7 7 7 7 4 7 7 7 6 7 6 6 6 7 10 8 2 7
3 3 3 3 3 3 6 6 6 8 7 7 8 8 7 6 5 5 5 5 5 5 5 6 7 7 8 7 7 6 7 7 7 7 7 7 6 5 6 6 7 6 6 6 7 7 6 6 7 5 6 7 7 6 6 5 7 5 5 8 14 10
5 5 5 6 7 7 6 8 8 8 8 6 8 8 7 6 6 5 6 4 5 5 6 7 8 7 8 7 7 6 6 7 7 6 6 6 5 7 7 6 6 6 6 6 5 4 4 5 4 5 3 4 3 4 4 4 6 6 5 6 7 10
6 5 6 8 9 9 8 7 8 8 9 7 7 8 6 6 5 4 5 4 4 5 6 7 7 7 7 7 6 6 6 7 6 5 5 6 5 6 5 5 4 4 3 4 3 3 3 3 3 3 3 3 4 4 3 3 4 5 3 3 5 9
5 6 7 8 9 9 8 8 7 7 9 9 8 8 7 6 6 4 5 4 5 5 6 6 6 6 6 5 6 6 6 6 6 5 5 6 5 4 4 3 3 3 4 4 3 3 3 4 3 4 5 5 5 6 7 7 7 7 6 5 6 6
6 6 6 7 8 8 8 8 8 7 6 6 7 7 8 6 5 6 4 4 5 6 6 6 5 5 5 6 6 6 6 5 6 6 6 6 6 5 6 5 4 4 4 5 5 5 5 7 7 6 7 7 8 7 8 7 6 7 7 7 6 7
6 6 7 7 8 8 7 7 8 8 7 6 6 7 7 5 5 5 4 5 6 6 6 6 5 5 5 6 6 6 6 6 6 6 5 5 6 6 6 6 5 5 5 5 7 6 7 7 6 7 7 7 7 8 8 6 7 7 6 6 6 7
8 7 7 8 8 8 8 8 8 8 8 7 8 8 7 7 6 5 5 7 6 6 6 4 4 5 4 6 6 5 5 6 5 6 6 6 6 5 5 6 6 6 6 5 7 6 7 7 7 8 7 8 8 8 7 7 7 8 8 9 9 10
8 8 8 9 9 9 8 8 8 8 8 7 7 7 6 5 6 5 6 8 6 6 6 5 5 5 6 6 5 6 6 6 6 6 6 6 6 6 5 6 6 6 6 5 7 7 7 7 7 7 7 7 7 8 7 7 8 9 9 9 9 9
8 8 8 9 9 9 8 7 8 8 8 7 7 6 6 5 5 6 8 7 7 6 5 5 5 5 5 5 5 6 6 6 6 6 6 6 6 6 7 7 7 7 7 4 6 7 6 7 8 7 6 7 7 7 8 9 9 9 9 8 8 8
8 8 9 8 8 7 7 7 7 7 7 7 7 7 7 6 6 7 7 6 6 5 4 4 4 4 5 5 5 5 5 6 6 6 6 6 6 7 7 6 6 7 7 6 6 5 6 7 7 7 5 8 8 9 8 8 8 8 8 8 7 7
Wind_Direction
129 118 115 111 108 118 132 129 129 135 135 131 128 136 152 164 162 167 163 154 141 113 132 154 144 147 148 144 142 143 143 145 153 150 158 170 184 204 231 253 265 270 278 293 299 296 285 278 268 268 275 289 302 309 303 302 298 308 190 159 160 171
124 117 118 115 114 122 125 123 123 131 116 130 137 158 176 190 177 213 182 169 160 187 177 202 173 163 153 156 151 158 162 164 172 185 204 194 210 235 242 252 260 273 279 291 284 287 283 267 255 253 258 267 276 277 282 282 282 271 174 167 171 183
123 126 122 116 123 128 131 131 132 118 129 141 179 187 207 206 207 198 203 176 197 222 186 189 211 173 165 164 164 168 178 191 209 233 252 256 247 253 262 270 275 276 279 279 272 259 258 254 255 251 248 247 250 257 256 263 274 284 184 170 169 181
133 139 134 132 135 144 147 145 144 144 144 182 214 208 208 241 237 225 208 193 215 207 169 182 199 177 152 141 176 178 202 218 233 250 265 276 289 276 268 273 275 272 275 271 256 249 233 236 242 242 238 236 243 256 258 257 257 264 157 168 163 169
145 149 135 135 147 164 163 154 159 162 171 190 202 211 215 221 230 210 202 158 105 74 55 47 46 48 87 135 133 191 235 255 265 261 249 256 270 267 263 268 277 273 262 258 252 248 233 232 225 222 217 227 239 245 252 258 260 255 157 164 169 180
149 148 139 142 160 175 161 163 165 173 177 184 195 213 213 202 158 148 114 75 70 56 43 59 46 47 14 82 102 189 198 231 247 244 223 240 266 261 248 244 260 263 260 255 255 253 241 230 229 211 212 224 226 238 246 257 258 240 141 175 183 182
145 147 150 163 168 172 166 169 166 180 174 188 187 210 187 122 96 98 81 90 92 96 64 47 20 14 5 350 58 356 290 262 284 296 306 209 259 260 238 236 236 248 253 251 267 280 272 257 222 203 213 221 227 235 240 247 266 261 170 175 182 186
156 146 161 175 163 159 168 159 160 176 158 179 177 157 123 114 98 72 83 99 107 127 131 105 79 348 348 352 334 312 278 239 253 287 307 297 272 280 289 277 265 250 235 241 233 258 294 320 309 267 286 289 286 279 292 284 290 287 256 158 183 193
145 145 158 159 145 153 149 136 107 98 111 159 104 122 116 110 90 90 111 132 142 131 131 123 172 216 172 210 215 222 230 245 223 246 260 260 252 269 273 263 251 267 293 301 302 314 314 332 349 333 353 311 295 298 303 313 288 278 314 97 170 200
132 124 87 73 56 60 40 72 56 35 349 74 59 77 81 65 57 46 83 178 161 166 162 151 166 225 293 317 315 308 254 228 223 228 272 272 275 285 276 285 306 302 292 317 339 316 331 311 315 292 285 299 280 262 255 246 311 323 327 317 175 196
83 81 83 84 78 86 89 96 89 105 37 58 39 42 47 35 20 330 310 263 193 198 164 146 143 160 206 218 272 257 229 189 269 195 217 250 269 249 269 325 318 333 332 328 309 297 305 304 304 294 261 253 266 267 260 291 303 285 284 282 247 221
74 86 89 85 82 90 78 70 67 51 41 26 42 52 66 56 92 340 316 302 232 233 211 191 167 167 198 183 214 16 18 346 339 257 174 211 292 327 337 313 327 322 341 357 330 322 304 292 295 292 300 296 294 281 255 249 260 262 258 267 246 236
68 70 86 88 65 74 79 66 59 50 45 50 60 73 52 20 71 69 299 297 283 250 250 164 161 132 121 91 80 27 13 7 323 343 4 360 345 340 348 358 353 348 346 356 349 330 330 331 323 307 306 298 317 315 276 269 264 258 262 262 258 240
86 90 93 107 114 97 86 81 91 73 65 68 56 66 72 34 34 68 29 326 320 315 132 95 42 44 69 50 52 30 18 5 339 350 18 13 5 5 1 13 356 359 358 356 343 331 335 332 317 312 315 304 320 307 296 267 251 247 256 266 264 258
98 97 93 89 91 89 80 88 86 83 81 70 67 72 59 53 20 59 67 347 313 280 329 28 67 82 73 63 62 45 32 332 340 334 28 16 19 10 3 21 11 2 344 342 331 325 325 314 314 312 300 302 299 295 296 286 288 289 281 280 276 259
103 104 106 106 97 98 100 91 95 98 104 87 74 69 66 58 53 40 72 13 291 285 13 36 57 61 78 96 57 51 88 276 267 349 29 21 29 14 359 355 349 347 351 324 325 315 316 317 320 317 311 306 296 289 286 288 283 279 271 278 293 288
119 121 125 117 105 110 111 104 99 83 79 82 77 78 62 75 51 35 50 17 291 273 339 32 29 29 49 73 86 29 8 13 31 35 34 29 27 18 11 359 353 343 332 304 312 303 312 315 311 303 301 305 297 296 292 281 278 270 277 280 272 277
122 120 123 125 116 114 111 99 88 89 92 82 79 79 79 71 86 110 94 284 266 23 37 39 36 40 56 60 64 58 43 39 40 41 40 37 31 18 19 21 6 354 353 346 327 321 335 333 317 309 305 303 301 297 285 282 274 271 265 271 277 277
122 126 122 114 120 114 105 99 101 109 91 87 94 93 88 83 97 133 145 200 37 36 42 42 39 37 45 54 58 53 47 39 45 44 43 36 29 18 16 13 10 348 348 341 342 4 0 332 325 318 320 313 306 294 287 280 276 269 258 249 264 277
119 126 119 115 125 112 106 122 118 99 82 83 91 90 99 118 169 93 70 57 42 35 36 46 43 38 38 41 47 51 46 38 39 40 39 38 31 21 11 8 2 351 347 342 350 9 357 339 319 307 315 306 295 297 300 304 290 291 315 323 305 298
119 124 131 135 135 136 127 116 95 106 112 109 111 123 120 103 76 63 60 58 49 44 42 44 44 41 39 38 38 36 43 35 30 24 26 29 26 15 9 10 358 345 351 355 353 3 355 330 346 342 320 296 300 309 306 354 28 35 10 343 327 329
122 131 141 139 137 136 160 150 137 141 128 131 146 126 97 80 75 65 59 57 53 49 49 49 48 47 43 40 36 33 38 43 34 24 21 16 23 21 18 18 13 10 359 7 359 357 359 358 19 346 328 329 329 323 304 50 36 6 353 350 345 342
129 134 139 133 122 131 117 91 98 140 145 131 97 97 94 88 80 77 67 60 56 50 50 48 43 45 47 38 37 37 30 38 41 32 25 22 27 31 21 18 15 22 2 5 356 4 18 23 358 316 298 3 346 348 342 1 350 350 346 3 357 6
117 124 126 117 114 100 89 83 83 121 141 101 109 92 82 77 76 73 63 59 52 48 48 52 44 43 50 42 41 36 26 28 27 22 37 46 39 33 22 22 22 28 26 19 4 7 22 14 21 6 18 347 289 349 333 2 335 314 338 357 6 7
121 121 125 121 109 105 101 97 115 149 129 99 86 82 77 71 71 76 75 56 55 53 50 49 43 43 47 48 42 40 33 24 31 30 43 50 44 29 32 38 36 36 32 27 25 11 16 18 28 24 21 1 359 23 16 328 324 289 45 343 9 6
118 126 128 123 121 117 115 123 129 130 113 96 86 75 80 87 84 78 85 87 59 52 48 43 39 39 35 42 47 44 39 32 32 33 42 46 37 30 34 37 33 41 34 26 46 38 23 14 24 29 29 32 3 1 335 315 345 319 333 30 358 14
127 127 129 132 131 121 122 119 116 106 98 97 94 79 84 80 83 83 76 63 58 42 44 48 40 46 42 39 41 43 43 37 35 40 38 36 34 38 41 43 39 41 35 28 34 45 33 6 4 31 19 16 20 21 7 6 11 336 333 330 48 11
99 106 113 120 117 135 136 130 116 105 103 97 97 100 91 83 74 78 79 77 75 61 45 44 43 46 48 41 38 39 41 40 41 41 39 36 45 48 52 47 45 42 35 36 40 44 33 20 31 18 3 15 17 10 10 36 30 10 335 331 325 345
91 90 88 81 72 63 84 109 109 107 102 102 107 103 97 93 86 74 78 69 75 68 58 51 49 48 44 39 39 46 42 42 44 42 40 38 47 54 55 55 46 42 40 35 41 48 47 29 32 30 10 22 19 12 5 32 32 17 15 336 325 343
84 79 80 76 74 69 70 89 103 106 106 103 100 101 104 105 94 82 84 69 63 70 63 54 47 47 47 39 42 47 45 43 40 39 43 38 45 56 56 60 55 57 52 49 38 52 51 34 27 13 29 14 12 5 37 43 30 21 9 46 347 332
91 87 84 85 84 79 72 70 86 97 107 113 109 111 109 100 104 89 88 83 81 77 69 62 54 49 47 44 44 45 42 41 39 37 40 36 36 48 58 60 52 49 47 53 41 44 28 22 18 16 8 10 3 24 27 28 13 17 12 354 345 336
97 90 89 90 87 84 79 75 73 78 89 106 115 118 117 130 123 117 111 88 73 69 61 58 51 57 49 45 48 42 39 39 37 36 37 34 33 39 45 38 26 38 40 37 30 34 34 30 25 21 12 13 24 35 38 33 27 19 10 353 345 332
103 91 83 86 90 90 88 83 82 75 66 61 77 102 114 116 123 121 108 90 80 77 67 59 42 57 59 56 51 45 38 38 36 32 35 36 35 44 48 33 28 25 36 44 41 42 39 30 31 24 13 26 38 36 32 29 30 19 0 349 352 349
102 95 88 80 82 81 79 79 78 76 70 68 73 85 91 94 96 98 102 90 88 87 80 74 57 51 59 64 55 50 45 41 37 35 37 38 40 39 48 42 30 24 27 41 47 41 39 34 30 30 37 45 40 32 29 26 25 17 13 14 13 6
100 94 87 81 76 76 77 79 77 77 82 78 81 85 89 97 104 103 84 89 92 90 90 78 67 57 57 65 61 50 49 45 36 36 38 40 39 37 36 38 31 27 29 41 50 46 42 36 30 32 45 50 44 35 25 28 27 31 29 26 19 8
106 99 90 84 85 86 84 83 82 88 89 92 92 93 98 99 94 88 96 100 98 98 97 87 74 65 57 72 66 60 54 47 41 39 38 43 44 42 35 35 29 24 26 26 46 48 45 37 29 33 45 50 48 35 30 34 38 35 32 26 19 8
106 96 96 98 95 91 89 87 88 90 95 94 99 105 109 105 85 86 97 98 100 109 104 96 89 74 71 70 77 72 61 54 46 40 39 39 44 45 40 37 32 28 28 28 41 40 44 41 30 31 35 52 49 45 40 40 39 35 28 22 15 7